map of AGA home
AGA - Airport
Location
City:  Agadir, Chaouia-Ouardigha, Morocco
Name:Al Massira International Airport
ICAO:GMAD
IATA:AGA

Details
Type:Airport (Aerodrome, Airfield)
Use:Public/Civil, International (customs port of entry)
Latitude:3019'21"N (30.322500)
Longitude:924'41"W (-9.411388)
Elevation:253 ft (77 m)
Variation:2.18W (WMM2015v2 magnetic declination)
0.14 annual change
Runways:1
Longest:10499 × 148 ft (3200 × 45 m), paved

Time
Time Zone:UTC+0 (DST+1)
Local Time:

Weather
METAR:GMAD 041400Z 02004KT CAVOK 27/M04 Q1021 NOSIG
TAF:GMAD 041100Z 0412/0518 28012KT CAVOK
BECMG 0419/0422 08006KT
BECMG 0512/0514 28012KT

Related Locations
Nearby:
Farthest:NLK: 12259 mi / 19729 km
Norfolk Island, NF

Find:

   beyond  
but within

Other Information
Maps:
NOTAMs:
Links:
Sources:

  
  • flag of Morocco
  

Sectional Chart

Flight Planning
at skyvector.com

Satellite Image

Google Maps Satellite view

 

Copyright © 2004-2019 Karl L. Swartz. All rights reserved.
The Great Circle Mapper name and logo are trademarks of the Great Circle Mapper.
All other trademarks mentioned herein belong to their respective owners.
Please see credits for attibutions and further copyright information.

  Follow gcmap on Facebook Follow gcmap on Twitter GCmap on LinkedIn

hCard Microformat

Geo Microformat